Location: Unspecified
(0.0000°N, 0.0000°E)
Time: 23:38:18
(UTC+00:00)

S-56A Canister/Altair - All Passes

Search period start: 25 January 2021 00:00
Search period end: 04 February 2021 00:00
Orbit: 633 x 2499 km, 38.9° (Epoch: 25 January)

Date Brightness Start Highest point End Pass type
(mag) Time Alt. Az. Time Alt. Az. Time Alt. Az.
25 Jan - 00:24:26 10° NW 00:25:11 10° NW 00:25:53 10° NW night (unlit)
25 Jan - 08:46:53 10° NNW 08:54:00 41° NE 09:04:26 10° ESE daylight
25 Jan - 10:50:01 10° WNW 10:59:10 56° SW 11:12:26 10° SE daylight
25 Jan - 12:59:16 10° WSW 13:07:18 19° SSW 13:16:36 10° SSE daylight
25 Jan - 19:33:41 10° SSW 19:42:32 23° SSE 19:49:19 10° ESE visible
25 Jan - 21:38:34 10° SW 21:48:53 82° SE 21:55:29 10° NE visible
25 Jan - 23:48:34 10° W 23:52:30 15° NW 23:55:50 10° NNW night (unlit)
26 Jan - 08:14:47 10° NNW 08:21:10 32° NE 08:30:12 10° ESE daylight
26 Jan - 10:17:15 10° WNW 10:25:53 63° SW 10:38:47 10° SE daylight
26 Jan - 12:25:25 10° WSW 12:33:34 21° SSW 12:43:19 10° SSE daylight
26 Jan - 19:00:19 10° SSW 19:09:05 21° SSE 19:16:02 10° ESE visible
26 Jan - 21:04:56 10° SW 21:15:57 71° SE 21:23:01 10° ENE visible
26 Jan - 23:14:01 10° W 23:19:52 21° NW 23:24:23 10° N visible
27 Jan - 07:42:52 10° N 07:48:23 25° NE 07:55:51 10° E daylight
27 Jan - 09:44:37 10° WNW 09:52:41 72° SW 10:05:05 10° SE daylight
27 Jan - 11:51:49 10° WSW 11:59:55 23° SSW 12:10:00 10° SSE daylight
27 Jan - 18:26:58 10° SSW 18:35:33 19° SSE 18:42:35 10° ESE visible
27 Jan - 20:31:19 10° SW 20:42:55 61° SE 20:50:28 10° ENE visible
27 Jan - 22:39:45 10° WSW 22:47:11 28° NW 22:52:35 10° N visible
28 Jan - 07:11:11 10° N 07:15:39 19° NE 07:21:19 10° E daylight
28 Jan - 09:12:04 10° NW 09:19:36 82° SW 09:31:22 10° SE daylight
28 Jan - 11:18:25 10° W 11:26:21 25° SSW 11:36:35 10° SSE daylight
28 Jan - 17:53:39 10° S 18:01:55 18° SSE 18:08:55 10° ESE daylight
28 Jan - 19:57:42 10° SW 20:09:46 54° SE 20:17:48 10° ENE visible
28 Jan - 22:05:36 10° WSW 22:14:28 36° NW 22:20:37 10° NNE visible
29 Jan - 06:39:58 10° NNE 06:42:57 13° NE 06:46:24 10° ENE daylight
29 Jan - 08:39:38 10° NW 08:46:39 85° NE 08:57:39 10° SE daylight
29 Jan - 10:45:12 10° W 10:52:53 28° SSW 11:03:10 10° SSE daylight
29 Jan - 17:20:25 10° S 17:28:10 16° SSE 17:34:58 10° ESE daylight
29 Jan - 19:24:07 10° SSW 19:36:30 48° SE 19:45:03 10° ENE visible
29 Jan - 21:31:31 10° WSW 21:41:41 46° NW 21:48:30 10° NNE visible
30 Jan - 08:07:17 10° NW 08:13:47 72° NE 08:23:54 10° SE daylight
30 Jan - 10:12:09 10° W 10:19:31 30° SSW 10:29:43 10° SSE daylight
30 Jan - 16:47:18 10° S 16:54:21 15° SSE 17:00:44 10° SE daylight
30 Jan - 18:50:32 10° SSW 19:03:09 43° SE 19:12:09 10° ENE visible
30 Jan - 20:57:29 10° WSW 21:08:49 56° NW 21:16:16 10° NNE visible
31 Jan - 07:35:01 10° NW 07:41:02 58° NE 07:50:10 10° ESE daylight
31 Jan - 09:39:13 10° W 09:46:15 34° SSW 09:56:16 10° SSE daylight
31 Jan - 11:52:20 10° SSW 11:54:50 11° SSW 11:57:28 10° S daylight
31 Jan - 16:14:22 10° S 16:20:26 13° SSE 16:26:06 10° SE daylight
31 Jan - 18:17:00 10° SSW 18:29:41 39° SE 18:39:07 10° E visible
31 Jan - 20:23:30 10° SW 20:35:51 67° NW 20:43:56 10° NE visible
31 Jan - 22:37:18 10° WNW 22:39:59 12° NW 22:42:25 10° NNW visible
01 Feb - 07:02:51 10° NNW 07:08:21 45° NE 07:16:24 10° ESE daylight
01 Feb - 09:06:25 10° W 09:13:06 37° SW 09:22:50 10° SSE daylight
01 Feb - 11:17:50 10° SW 11:21:08 12° SSW 11:24:44 10° S daylight
01 Feb - 15:41:48 10° S 15:46:26 12° SSE 15:50:55 10° SE daylight
01 Feb - 17:43:32 10° SSW 17:56:09 35° SE 18:05:56 10° E daylight
01 Feb - 19:49:35 10° SW 20:02:46 79° NW 20:11:30 10° NE visible
01 Feb - 22:01:29 10° W 22:07:08 16° NW 22:11:44 10° N visible
02 Feb - 06:30:47 10° NNW 06:35:45 34° NE 06:42:38 10° ESE daylight
02 Feb - 08:33:43 10° WNW 08:40:02 42° SW 08:49:25 10° SSE daylight
02 Feb - 10:43:46 10° SW 10:47:32 12° SSW 10:51:46 10° S daylight
02 Feb - 15:10:12 10° SSE 15:12:22 10° SSE 15:14:32 10° SSE daylight
02 Feb - 17:10:08 10° SSW 17:22:31 32° SSE 17:32:34 10° E daylight
02 Feb - 19:15:44 10° SW 19:29:35 89° NW 19:38:58 10° NE visible
02 Feb - 21:26:29 10° W 21:34:14 22° NW 21:40:11 10° N visible
03 Feb - 05:58:50 10° N 06:03:10 26° NE 06:08:48 10° E daylight
03 Feb - 08:01:05 10° WNW 08:07:04 48° SW 08:16:02 10° SE daylight
03 Feb - 10:10:01 10° SW 10:14:03 13° SSW 10:18:43 10° S daylight
03 Feb - 16:36:48 10° SSW 16:48:49 28° SSE 16:59:01 10° E daylight
03 Feb - 18:41:56 10° SW 18:56:17 81° SE 19:06:18 10° NE visible
03 Feb - 20:51:47 10° W 21:01:18 28° NW 21:08:20 10° N visible
